Regional Weather Roundup
Issued by NWS Memphis, TN

Home | Current Version | Previous Version | Text Only | Print | Product List | Glossary On
Versions: 1 2 3 4 5 6 7 8 9 10 11 12 13 14 15 16 17 18 19 20 21 22 23 24 25 26 27 28 29 30 31 32 33 34 35 36 37 38 39 40 41 42 43 44 45 46 47 48 49 50
000
ASUS44 KMEG 251010
RWRMEG
MEMPHIS CWA HOURLY WEATHER ROUNDUP
NATIONAL WEATHER SERVICE MEMPHIS TN
500 AM CDT MON JUL 25 2016

...WEST TENNESSEE...

CITY           SKY/WX    TMP DP  RH WIND       PRES   REMARKS
MEMPHIS INTL   CLEAR     80  75  84 SE6       29.99R
NWS MEMPHIS      N/A     76 N/A N/A MISG        N/A
JACKSON        CLEAR     74  74 100 CALM      30.00R
LEXINGTON      CLEAR     73  73 100 CALM      30.01R
DYERSBURG      CLEAR     75  73  94 MISG      30.00R
UNION CITY     CLEAR     77  75  94 CALM      29.98F
PARIS          CLEAR     73  72  94 CALM      30.01S


...EASTERN ARKANSAS...

CITY           SKY/WX    TMP DP  RH WIND       PRES   REMARKS
JONESBORO      CLEAR     76  74  93 CALM      29.97S
WEST MEMPHIS   CLEAR     77  76  96 CALM      29.97R
BATESVILLE     CLEAR     73  72  94 CALM      29.97S
NEWPORT        CLEAR     76  76 100 SE6       29.97F
WALNUT RIDGE   PTCLDY    77  73  88 S3        29.96R
BLYTHEVILLE    CLEAR     78  76  93 SE3       29.98F
SEARCY         CLOUDY    73  72  96 S3        29.98S
STUTTGART      PTCLDY    77  72  83 CALM      29.99R
PINE BLUFF     MOCLDY    76  74  93 SW3       29.98R
MONTICELLO     CLEAR     75  72  90 CALM      29.98S


...NORTH MISSISSIPPI...

CITY           SKY/WX    TMP DP  RH WIND       PRES   REMARKS
TUPELO         CLEAR     77  74  90 CALM      30.02R
OXFORD         CLEAR     73  72  94 CALM      30.04R
BATESVILLE     CLEAR     74  73  95 CALM      30.01R
TUNICA           N/A     73  73 100 SE5       30.00R FOG
CLARKSDALE     CLEAR     77  77 100 CALM      29.99R FOG
CORINTH        CLEAR     75  73  94 CALM      30.01R FOG
GREENWOOD      CLEAR     75  71  87 CALM      29.99R
COLUMBUS       CLEAR     74  74 100 SE5       30.01R
GOLDEN TRIANGL CLEAR     73  68  83 S3        30.01R


...SOUTHEAST MISSOURI...

CITY           SKY/WX    TMP DP  RH WIND       PRES   REMARKS
KENNETT        PTCLDY    77  77 100 CALM      29.96F FOG
WEST PLAINS    PTCLDY    77  73  87 CALM      30.02R
POPLAR BLUFF   CLEAR     77  75  93 CALM      29.97R
CAPE GIRARDEAU PTCLDY    77  74  90 CALM      29.98R


...NORTHWEST ALABAMA...

CITY           SKY/WX    TMP DP  RH WIND       PRES   REMARKS
MUSCLE SHOALS  CLEAR     73  71  93 CALM      30.04R


...MIDDLE TENNESSEE...

CITY           SKY/WX    TMP DP  RH WIND       PRES   REMARKS
NASHVILLE      MOCLDY    76  73  91 S3        30.03S
CLARKSVILLE    CLEAR     76  73  91 S3        30.00F
COLUMBIA       CLEAR    N/A N/A N/A CALM      30.03R


...WESTERN KENTUCKY...

CITY           SKY/WX    TMP DP  RH WIND       PRES   REMARKS
PADUCAH        PTCLDY    79  76  90 SW3       29.98S
FORT CAMPBELL  CLEAR     78  74  88 S5        29.99F


...CENTRAL ARKANSAS...

CITY           SKY/WX    TMP DP  RH WIND       PRES   REMARKS
LITTLE ROCK    CLOUDY    77  71  82 S3        29.98R


SKY/WX REPORTED AS FAIR MEANS FEW OR NO CLOUDS BELOW
12 THOUSAND FEET.





USA.gov is the U.S. government's official web portal to all federal, state and local government web resources and services.